| time (UTC) | temp F | wind direction | speed MPH | gust MPH | rain 1hr in | rain 24hr in | rain mn in | humidity % | barometer mb |
| 20260904121540 | 68 | 335 | 2.0 | 9.0 | 0.00 | 0.40 | 0.00 | 95 | 1012.3 |
| 20260904120045 | 68 | 258 | 3.0 | 8.0 | 0.00 | 0.40 | 0.00 | 95 | 1012.1 |
| 20260904114537 | 67 | 311 | 1.0 | 7.0 | 0.00 | 0.40 | 0.00 | 95 | 1012.2 |
| 20260904113038 | 67 | 355 | 1.0 | 6.0 | 0.00 | 0.40 | 0.00 | 96 | 1012.2 |
| 20260904111533 | 68 | 251 | 1.0 | 4.0 | 0.00 | 0.40 | 0.00 | 96 | 1012.3 |
| 20260904110031 | 68 | 306 | 2.0 | 4.0 | 0.00 | 0.40 | 0.00 | 96 | 1012.1 |
| 20260904104530 | 68 | 325 | 0.0 | 5.0 | 0.00 | 0.41 | 0.00 | 96 | 1012.0 |
| 20260904103028 | 68 | 317 | 2.0 | 7.0 | 0.00 | 0.41 | 0.00 | 96 | 1011.9 |
| 20260904101526 | 67 | 331 | 4.0 | 8.0 | 0.00 | 0.41 | 0.00 | 96 | 1011.8 |
| 20260904100023 | 67 | 331 | 2.0 | 5.0 | 0.00 | 0.41 | 0.00 | 96 | 1011.7 |
| 20260904094530 | 68 | 321 | 1.0 | 4.0 | 0.00 | 0.42 | 0.00 | 96 | 1011.8 |
| 20260904093021 | 68 | 219 | 0.0 | 4.0 | 0.00 | 0.42 | 0.00 | 96 | 1011.7 |
| 20260904091521 | 68 | 236 | 0.0 | 6.0 | 0.00 | 0.42 | 0.00 | 96 | 1011.6 |
| 20260904090024 | 68 | 319 | 0.0 | 5.0 | 0.00 | 0.42 | 0.00 | 96 | 1011.6 |
| 20260904084521 | 68 | 351 | 1.0 | 7.0 | 0.00 | 0.42 | 0.00 | 96 | 1011.4 |
| 20260904083017 | 68 | 291 | 2.0 | 8.0 | 0.00 | 0.42 | 0.00 | 96 | 1011.2 |
| 20260904081515 | 69 | 260 | 3.0 | 7.0 | 0.00 | 0.42 | 0.00 | 96 | 1011.1 |
| 20260904080012 | 69 | 252 | 4.0 | 8.0 | 0.00 | 0.42 | 0.00 | 96 | 1010.9 |
| 20260904074511 | 69 | 279 | 1.0 | 5.0 | 0.00 | 0.42 | 0.00 | 96 | 1010.9 |
| 20260904073011 | 69 | 326 | 3.0 | 8.0 | 0.00 | 0.42 | 0.00 | 96 | 1010.6 |
| 20260904071552 | 69 | 280 | 2.0 | 6.0 | 0.00 | 0.42 | 0.00 | 96 | 1010.4 |
| 20260904070057 | 69 | 331 | 2.0 | 6.0 | 0.00 | 0.42 | 0.00 | 96 | 1010.3 |
| 20260904064549 | 69 | 355 | 1.0 | 8.0 | 0.00 | 0.44 | 0.00 | 96 | 1010.4 |
| 20260904063109 | 69 | 348 | 3.0 | 10.0 | 0.00 | 0.44 | 0.00 | 96 | 1010.4 |
| 20260904061552 | 70 | 5 | 2.0 | 6.0 | 0.00 | 0.44 | 0.00 | 96 | 1010.5 |
| 20260904060145 | 70 | 37 | 2.0 | 7.0 | 0.00 | 0.44 | 0.00 | 96 | 1010.6 |
| 20260904054547 | 70 | 5 | 4.0 | 8.0 | 0.00 | 0.50 | 0.00 | 96 | 1010.9 |
| 20260904053055 | 70 | 346 | 3.0 | 6.0 | 0.00 | 0.50 | 0.00 | 96 | 1010.9 |
| 20260904051542 | 70 | 360 | 3.0 | 6.0 | 0.00 | 0.50 | 0.00 | 96 | 1010.9 |
| 20260904050039 | 70 | 339 | 2.0 | 5.0 | 0.00 | 0.50 | 0.00 | 96 | 1010.8 |
| 20260904044540 | 70 | 324 | 2.0 | 4.0 | 0.00 | 0.59 | 0.00 | 96 | 1011.1 |
| 20260904043050 | 70 | 321 | 1.0 | 9.0 | 0.00 | 0.59 | 0.00 | 96 | 1011.1 |
| 20260904041535 | 69 | 289 | 2.0 | 4.0 | 0.01 | 0.59 | 0.00 | 96 | 1011.2 |
| 20260904040032 | 69 | 252 | 0.0 | 3.0 | 0.20 | 0.59 | 0.00 | 96 | 1011.3 |
| 20260904034532 | 69 | 279 | 1.0 | 5.0 | 0.40 | 0.77 | 0.59 | 95 | 1011.3 |
| 20260904033033 | 70 | 350 | 3.0 | 6.0 | 0.40 | 0.77 | 0.59 | 95 | 1011.3 |
| 20260904031528 | 70 | 330 | 5.0 | 12.0 | 0.38 | 0.75 | 0.56 | 95 | 1011.1 |
| 20260904030035 | 71 | 317 | 8.0 | 14.0 | 0.20 | 0.56 | 0.39 | 96 | 1011.8 |
| 20260904024524 | 70 | 277 | 0.0 | 0.0 | 0.00 | 0.47 | 0.19 | 96 | 1010.9 |
| 20260904023025 | 70 | 277 | 0.0 | 1.0 | 0.00 | 0.47 | 0.19 | 95 | 1010.8 |
| 20260904021529 | 70 | 277 | 0.0 | 0.0 | 0.00 | 0.47 | 0.19 | 95 | 1010.8 |
| 20260904020023 | 71 | 277 | 0.0 | 1.0 | 0.00 | 0.47 | 0.19 | 95 | 1010.9 |
| 20260904014523 | 71 | 277 | 0.0 | 2.0 | 0.00 | 0.79 | 0.19 | 95 | 1011.2 |
| 20260904013021 | 71 | 277 | 0.0 | 2.0 | 0.00 | 0.79 | 0.19 | 95 | 1011.2 |
| 20260904011521 | 71 | 277 | 0.0 | 0.0 | 0.00 | 0.79 | 0.19 | 94 | 1011.3 |
| 20260904010021 | 71 | 277 | 0.0 | 1.0 | 0.00 | 0.79 | 0.19 | 93 | 1011.5 |
| 20260904004525 | 72 | 277 | 0.0 | 2.0 | 0.00 | 1.06 | 0.19 | 94 | 1011.7 |
| 20260904003022 | 72 | 277 | 1.0 | 4.0 | 0.00 | 1.06 | 0.19 | 94 | 1011.6 |
| 20260904001517 | 72 | 241 | 0.0 | 1.0 | 0.00 | 1.06 | 0.19 | 92 | 1011.3 |
| 20260904000019 | 73 | 241 | 0.0 | 2.0 | 0.00 | 1.06 | 0.19 | 92 | 1011.1 |
| 20260903234516 | 74 | 241 | 1.0 | 3.0 | 0.00 | 1.06 | 0.19 | 91 | 1011.3 |
| 20260903233029 | 74 | 263 | 1.0 | 2.0 | 0.00 | 1.06 | 0.19 | 90 | 1011.0 |
| 20260903231523 | 75 | 264 | 0.0 | 5.0 | 0.00 | 1.06 | 0.19 | 89 | 1011.4 |
| 20260903230014 | 75 | 304 | 2.0 | 4.0 | 0.00 | 1.06 | 0.19 | 89 | 1011.7 |
| 20260903224512 | 76 | 293 | 2.0 | 4.0 | 0.00 | 1.06 | 0.19 | 88 | 1011.3 |
| 20260903223013 | 77 | 329 | 0.0 | 2.0 | 0.00 | 1.06 | 0.19 | 88 | 1011.2 |
| 20260903221511 | 78 | 329 | 0.0 | 2.0 | 0.00 | 1.06 | 0.19 | 84 | 1010.9 |
| 20260903220011 | 78 | 5 | 0.0 | 3.0 | 0.00 | 1.06 | 0.19 | 85 | 1010.5 |
| 20260903214510 | 79 | 5 | 0.0 | 3.0 | 0.00 | 1.06 | 0.19 | 82 | 1010.5 |
| 20260903213009 | 79 | 342 | 0.0 | 2.0 | 0.00 | 1.06 | 0.19 | 81 | 1010.5 |
| 20260903211508 | 79 | 324 | 2.0 | 5.0 | 0.00 | 1.06 | 0.19 | 79 | 1010.8 |
| 20260903210008 | 79 | 340 | 2.0 | 5.0 | 0.00 | 1.06 | 0.19 | 79 | 1010.8 |
| 20260903204506 | 80 | 15 | 1.0 | 5.0 | 0.00 | 1.06 | 0.19 | 79 | 1010.8 |
| 20260903203006 | 80 | 355 | 2.0 | 5.0 | 0.00 | 1.06 | 0.19 | 79 | 1010.7 |
| 20260903201503 | 80 | 21 | 2.0 | 9.0 | 0.00 | 1.06 | 0.19 | 78 | 1011.0 |
| 20260903200116 | 80 | 343 | 3.0 | 9.0 | 0.00 | 1.06 | 0.19 | 78 | 1011.3 |
| 20260903194558 | 80 | 339 | 2.0 | 9.0 | 0.00 | 1.06 | 0.19 | 78 | 1011.4 |
| 20260903193058 | 79 | 355 | 4.0 | 9.0 | 0.00 | 1.06 | 0.19 | 78 | 1011.5 |
| 20260903191602 | 79 | 53 | 3.0 | 6.0 | 0.00 | 1.06 | 0.19 | 80 | 1011.5 |
| 20260903190054 | 78 | 122 | 2.0 | 5.0 | 0.00 | 1.06 | 0.19 | 80 | 1011.6 |
| 20260903184557 | 78 | 23 | 3.0 | 5.0 | 0.00 | 1.06 | 0.19 | 80 | 1011.7 |
| 20260903183056 | 78 | 21 | 3.0 | 6.0 | 0.00 | 1.06 | 0.19 | 80 | 1012.1 |
| 20260903181551 | 78 | 5 | 2.0 | 6.0 | 0.00 | 1.06 | 0.19 | 81 | 1012.1 |
| 20260903180052 | 79 | 317 | 4.0 | 8.0 | 0.00 | 1.06 | 0.19 | 79 | 1012.1 |
| 20260903174549 | 78 | 304 | 4.0 | 9.0 | 0.00 | 1.06 | 0.19 | 80 | 1012.4 |
| 20260903173048 | 78 | 350 | 3.0 | 6.0 | 0.00 | 1.06 | 0.19 | 80 | 1012.3 |
| 20260903171602 | 77 | 225 | 2.0 | 9.0 | 0.00 | 1.06 | 0.19 | 82 | 1012.6 |
| 20260903170051 | 76 | 248 | 3.0 | 5.0 | 0.00 | 1.06 | 0.19 | 82 | 1012.5 |
| 20260903164544 | 76 | 280 | 2.0 | 7.0 | 0.00 | 1.06 | 0.19 | 81 | 1012.7 |
| 20260903163045 | 78 | 298 | 5.0 | 8.0 | 0.00 | 1.06 | 0.19 | 78 | 1012.7 |
| 20260903161540 | 78 | 272 | 3.0 | 10.0 | 0.00 | 1.06 | 0.19 | 82 | 1012.8 |
| 20260903160038 | 78 | 300 | 6.0 | 12.0 | 0.00 | 1.06 | 0.19 | 78 | 1012.9 |
| 20260903154535 | 77 | 304 | 6.0 | 11.0 | 0.00 | 1.06 | 0.19 | 80 | 1012.9 |
| 20260903153032 | 76 | 243 | 3.0 | 10.0 | 0.00 | 1.06 | 0.19 | 82 | 1013.0 |
| 20260903151531 | 76 | 232 | 4.0 | 13.0 | 0.00 | 1.06 | 0.19 | 82 | 1013.1 |
| 20260903150039 | 75 | 254 | 5.0 | 13.0 | 0.00 | 1.06 | 0.19 | 84 | 1013.2 |
| 20260903144523 | 74 | 232 | 5.0 | 10.0 | 0.00 | 1.08 | 0.19 | 84 | 1013.2 |
| 20260903143031 | 73 | 179 | 3.0 | 7.0 | 0.00 | 1.08 | 0.19 | 86 | 1013.2 |
| 20260903141517 | 72 | 265 | 2.0 | 7.0 | 0.00 | 1.08 | 0.19 | 90 | 1013.0 |
| 20260903140012 | 71 | 256 | 5.0 | 9.0 | 0.00 | 1.08 | 0.19 | 91 | 1013.3 |
| 20260903134507 | 70 | 203 | 3.0 | 8.0 | 0.00 | 1.12 | 0.19 | 94 | 1013.2 |
| 20260903133005 | 69 | 222 | 2.0 | 6.0 | 0.00 | 1.12 | 0.19 | 95 | 1013.4 |
| 20260903131503 | 69 | 193 | 2.0 | 8.0 | 0.00 | 1.12 | 0.19 | 95 | 1013.5 |
| 20260903130001 | 68 | 200 | 3.0 | 9.0 | 0.00 | 1.12 | 0.19 | 96 | 1013.5 |
| 20260903124657 | 68 | 182 | 4.0 | 7.0 | 0.00 | 1.12 | 0.19 | 96 | 1013.4 |
| 20260903123056 | 68 | 212 | 3.0 | 8.0 | 0.00 | 1.12 | 0.19 | 96 | 1013.5 |